IK6DEN Weather Reports


Display with metric or nautical units.
time (UTC)temp
F
wind
direction
speed
MPH
gust
MPH
rain 1hr
in
rain 24hr
in
rain mn
in
humidity
%
barometer
mb
20260507220111 57 225 0.0 2.0 0.00 0.02 0.00 74 1013.9
20260507215107 57 0.0 0.0 0.00 0.02 0.02 74 1014.0
20260507214103 58 225 1.0 2.0 0.00 0.02 0.02 73 1013.9
20260507213059 58 225 0.0 2.0 0.00 0.02 0.02 73 1013.9
20260507212114 58 0.0 0.0 0.00 0.02 0.02 73 1013.7
20260507211050 58 0.0 1.0 0.00 0.02 0.02 73 1013.7
20260507210046 58 0.0 0.0 0.00 0.02 0.02 73 1013.7
20260507205041 58 225 0.0 2.0 0.00 0.02 0.02 72 1013.8
20260507204037 58 0.0 2.0 0.00 0.02 0.02 72 1013.8
20260507203032 58 225 0.0 2.0 0.00 0.02 0.02 71 1013.9
20260507202028 58 225 2.0 3.0 0.00 0.02 0.02 71 1014.0
20260507201044 59 225 2.0 3.0 0.00 0.02 0.02 71 1013.9
20260507200040 59 225 1.0 4.0 0.00 0.02 0.02 71 1013.8
20260507195017 59 225 2.0 3.0 0.00 0.02 0.02 71 1013.8
20260507194112 59 225 1.0 4.0 0.00 0.02 0.02 70 1013.7
20260507193107 59 225 1.0 3.0 0.00 0.02 0.02 70 1013.6
20260507192103 59 225 1.0 4.0 0.00 0.02 0.02 70 1013.5
20260507191100 59 225 1.0 4.0 0.00 0.02 0.02 70 1013.5
20260507190054 60 225 2.0 4.0 0.00 0.02 0.02 69 1013.4
20260507185050 60 225 1.0 2.0 0.00 0.02 0.02 68 1013.2
20260507184046 61 225 2.0 4.0 0.00 0.02 0.02 67 1013.1
20260507183042 61 225 1.0 2.0 0.00 0.02 0.02 66 1013.1
20260507182038 62 225 2.0 4.0 0.00 0.02 0.02 65 1012.9
20260507181033 62 225 0.0 2.0 0.00 0.02 0.02 63 1012.8
20260507180029 63 225 3.0 5.0 0.00 0.02 0.02 62 1012.9
20260507175025 64 225 1.0 3.0 0.00 0.02 0.02 56 1012.7
20260507174020 64 225 4.0 6.0 0.00 0.02 0.02 54 1012.5
20260507173016 65 225 5.0 8.0 0.00 0.02 0.02 53 1012.4
20260507172112 66 225 6.0 10.0 0.00 0.02 0.02 52 1012.1
20260507171148 67 225 6.0 10.0 0.00 0.02 0.02 50 1011.9
20260507170104 68 225 8.0 12.0 0.00 0.02 0.02 49 1011.9
20260507165119 69 288 4.0 7.0 0.00 0.02 0.02 43 1011.8
20260507164115 70 293 3.0 6.0 0.00 0.02 0.02 41 1011.7
20260507163050 71 293 2.0 7.0 0.00 0.02 0.02 39 1011.7
20260507162046 71 293 3.0 8.0 0.00 0.02 0.02 38 1011.5
20260507161102 71 293 3.0 5.0 0.00 0.02 0.02 35 1011.6
20260507160039 71 293 4.0 8.0 0.00 0.02 0.02 32 1011.4
20260507155034 71 293 5.0 8.0 0.00 0.02 0.02 30 1011.5
20260507154029 71 293 3.0 5.0 0.00 0.02 0.02 31 1011.6
20260507153026 71 276 4.0 5.0 0.00 0.02 0.02 31 1011.5
20260507152020 70 293 3.0 5.0 0.00 0.02 0.02 31 1011.5
20260507151017 71 293 5.0 7.0 0.00 0.02 0.02 31 1011.6
20260507150112 71 270 5.0 8.0 0.00 0.02 0.02 32 1011.6
20260507145108 71 255 5.0 9.0 0.00 0.02 0.02 32 1011.7
20260507144103 71 270 5.0 8.0 0.00 0.02 0.02 31 1011.8
20260507143059 71 275 4.0 13.0 0.00 0.02 0.02 28 1012.0
20260507142055 71 293 2.0 4.0 0.00 0.02 0.02 25 1012.0
20260507141050 71 293 4.0 6.0 0.00 0.02 0.02 26 1012.0
20260507140126 71 293 4.0 8.0 0.00 0.02 0.02 26 1012.1
20260507135042 71 293 3.0 6.0 0.00 0.02 0.02 25 1012.3
20260507134038 71 293 5.0 8.0 0.00 0.02 0.02 26 1012.3
20260507133033 70 284 9.0 15.0 0.00 0.02 0.02 26 1012.4
20260507132030 71 270 5.0 8.0 0.00 0.02 0.02 29 1012.6
20260507131025 70 270 8.0 11.0 0.00 0.02 0.02 30 1012.6
20260507130021 70 248 4.0 8.0 0.00 0.02 0.02 29 1012.6
20260507125017 70 232 3.0 9.0 0.00 0.02 0.02 30 1012.9
20260507124113 70 225 3.0 4.0 0.00 0.02 0.02 33 1012.8
20260507123108 70 222 4.0 6.0 0.00 0.02 0.02 36 1012.7
20260507122104 69 203 5.0 7.0 0.00 0.02 0.02 34 1012.5
20260507121059 69 218 2.0 6.0 0.00 0.02 0.02 35 1012.8
20260507120055 69 219 3.0 8.0 0.00 0.02 0.02 40 1012.7
20260507115131 69 214 3.0 7.0 0.00 0.02 0.02 40 1012.8
20260507114107 68 203 2.0 10.0 0.00 0.02 0.02 39 1012.9
20260507113103 68 208 5.0 11.0 0.00 0.02 0.02 39 1012.8
20260507112038 68 225 3.0 6.0 0.00 0.04 0.02 42 1012.7
20260507111033 67 233 4.0 6.0 0.00 0.04 0.02 41 1013.0
20260507110049 67 225 3.0 4.0 0.00 0.04 0.02 41 1012.9
20260507105025 67 225 4.0 7.0 0.00 0.04 0.02 41 1013.1
20260507104021 67 245 3.0 4.0 0.00 0.04 0.02 42 1013.1
20260507103016 66 233 4.0 6.0 0.00 0.04 0.02 46 1013.0
20260507102112 66 225 2.0 5.0 0.01 0.04 0.02 49 1013.4
20260507101109 65 241 1.0 3.0 0.01 0.04 0.02 50 1013.5
20260507100104 65 248 2.0 4.0 0.01 0.04 0.02 47 1013.4
20260507095100 65 248 3.0 5.0 0.01 0.04 0.02 47 1013.4
20260507094115 65 243 3.0 4.0 0.01 0.04 0.02 49 1013.4
20260507093051 65 237 4.0 6.0 0.01 0.04 0.02 50 1013.4
20260507092048 65 206 4.0 7.0 0.00 0.02 0.01 50 1013.3
20260507091043 65 203 1.0 3.0 0.00 0.02 0.01 51 1013.5
20260507090038 64 215 3.0 4.0 0.00 0.02 0.01 52 1013.6
20260507085034 63 243 2.0 4.0 0.00 0.02 0.01 55 1013.7
20260507084030 63 214 3.0 6.0 0.00 0.02 0.01 57 1013.8
20260507083026 62 241 1.0 6.0 0.00 0.02 0.01 60 1013.8
20260507082041 62 240 3.0 6.0 0.00 0.02 0.01 61 1013.7
20260507081017 62 203 2.0 5.0 0.00 0.02 0.01 61 1013.8
20260507080113 61 203 1.0 3.0 0.00 0.02 0.01 63 1014.0
20260507075108 61 203 1.0 4.0 0.00 0.02 0.01 63 1013.8
20260507074104 61 203 2.0 3.0 0.00 0.02 0.01 67 1013.9
20260507073120 60 203 1.0 2.0 0.00 0.02 0.01 70 1013.8
20260507072056 59 203 1.0 3.0 0.00 0.02 0.01 71 1013.9
20260507071052 59 225 0.0 3.0 0.00 0.02 0.01 73 1014.0
20260507070047 58 225 1.0 2.0 0.00 0.02 0.01 76 1013.8
20260507065043 57 225 2.0 4.0 0.00 0.02 0.01 80 1013.9
20260507064038 56 225 1.0 2.0 0.00 0.02 0.01 82 1013.8
20260507063035 55 253 1.0 2.0 0.00 0.02 0.01 85 1013.9
20260507062030 55 270 2.0 3.0 0.00 0.02 0.01 87 1013.6
20260507061026 55 270 1.0 2.0 0.00 0.02 0.01 90 1013.6
20260507060022 54 0.0 1.0 0.00 0.02 0.01 93 1013.7
20260507055018 53 0.0 2.0 0.00 0.02 0.01 92 1013.6
20260507054134 53 0.0 0.0 0.00 0.02 0.01 92 1013.8
20260507053109 52 248 0.0 2.0 0.00 0.02 0.01 92 1013.7
20260507052105 52 0.0 0.0 0.00 0.02 0.01 92 1013.6
20260507051101 52 240 1.0 2.0 0.00 0.02 0.01 92 1013.6
20260507050056 52 0.0 1.0 0.00 0.02 0.01 91 1013.5
20260507045052 52 270 0.0 2.0 0.00 0.02 0.01 91 1013.5
20260507044048 52 270 1.0 2.0 0.00 0.02 0.01 91 1013.4
20260507043044 52 0.0 0.0 0.00 0.02 0.01 91 1013.2
20260507042120 52 0.0 0.0 0.00 0.02 0.01 90 1013.2
20260507041055 52 0.0 0.0 0.00 0.02 0.01 90 1013.2
20260507040031 52 255 0.0 2.0 0.00 0.02 0.01 90 1013.2
20260507035027 52 0.0 1.0 0.00 0.02 0.01 89 1013.0
20260507034023 52 270 0.0 2.0 0.00 0.02 0.01 88 1013.2
20260507033038 53 0.0 0.0 0.00 0.02 0.01 88 1013.1
20260507032115 53 270 0.0 1.0 0.00 0.04 0.01 87 1013.2
20260507031111 53 270 1.0 3.0 0.00 0.04 0.01 87 1013.1
20260507030106 53 0.0 1.0 0.00 0.04 0.01 86 1013.1
20260507025102 53 270 1.0 2.0 0.00 0.07 0.01 87 1013.1
20260507024058 53 264 1.0 4.0 0.00 0.08 0.01 88 1013.1
20260507023054 53 248 1.0 4.0 0.00 0.08 0.01 89 1013.0
20260507022049 53 248 0.0 2.0 0.00 0.08 0.01 90 1012.8
20260507021124 53 248 3.0 4.0 0.00 0.08 0.01 91 1012.7
20260507020040 53 241 0.0 2.0 0.00 0.08 0.01 91 1012.7
20260507015036 53 225 0.0 2.0 0.00 0.08 0.01 91 1012.5
20260507014032 53 248 1.0 2.0 0.00 0.08 0.01 91 1012.6
20260507013028 53 0.0 0.0 0.00 0.08 0.01 91 1012.5
20260507012023 53 0.0 1.0 0.00 0.08 0.01 91 1012.6
20260507011020 53 0.0 0.0 0.00 0.08 0.01 91 1012.5
20260507010015 53 0.0 0.0 0.00 0.08 0.01 91 1012.5
20260507005111 53 0.0 0.0 0.00 0.08 0.01 90 1012.5
20260507004107 53 0.0 0.0 0.00 0.08 0.01 90 1012.5
20260507003103 53 0.0 0.0 0.00 0.08 0.01 90 1012.5
20260507002118 53 0.0 0.0 0.00 0.08 0.01 90 1012.6
20260507001054 53 0.0 1.0 0.00 0.08 0.01 90 1012.8
20260507000110 53 0.0 2.0 0.00 0.08 0.01 90 1012.9
20260506235046 53 231 2.0 4.0 0.00 0.08 0.01 90 1013.0
20260506234041 53 0.0 0.0 0.00 0.08 0.01 89 1013.0
20260506233037 53 0.0 1.0 0.00 0.08 0.01 88 1013.0
20260506232032 53 225 2.0 4.0 0.01 0.08 0.01 87 1013.2
20260506231028 53 225 0.0 2.0 0.01 0.08 0.01 86 1013.1
20260506230104 53 0.0 0.0 0.01 0.08 0.01 85 1013.4
20260506225020 54 0.0 1.0 0.01 0.08 0.01 84 1013.3
20260506224016 54 0.0 0.0 0.01 0.08 0.01 83 1013.3
20260506223111 54 225 1.0 2.0 0.01 0.08 0.01 82 1013.4
20260506222107 54 225 1.0 2.0 0.00 0.07 0.00 81 1013.4
20260506221143 54 0.0 1.0 0.00 0.07 0.00 78 1013.5